Year,Month,Day,Hour,Minute,Value (Times are PST for temperature in C)
2007,12,03,00,00,0.30
2007,12,03,00,01,0.30
2007,12,03,00,02,0.30
2007,12,03,00,03,0.30
2007,12,03,00,04,0.30
2007,12,03,00,05,0.30
2007,12,03,00,06,0.30
2007,12,03,00,07,0.30
2007,12,03,00,08,0.30
2007,12,03,00,09,0.30
2007,12,03,00,10,0.30
2007,12,03,00,11,0.30
2007,12,03,00,12,0.30
2007,12,03,00,13,0.30
2007,12,03,00,14,0.30
2007,12,03,00,15,0.30
2007,12,03,00,16,0.30
2007,12,03,00,17,0.30
2007,12,03,00,18,0.30
2007,12,03,00,19,0.30
2007,12,03,00,20,0.30
2007,12,03,00,21,0.30
2007,12,03,00,22,0.30
2007,12,03,00,23,0.30
2007,12,03,00,24,0.40
2007,12,03,00,25,0.40
2007,12,03,00,26,0.40
2007,12,03,00,27,0.40
2007,12,03,00,28,0.40
2007,12,03,00,29,0.40
2007,12,03,00,30,0.40
2007,12,03,00,31,0.30
2007,12,03,00,32,0.30
2007,12,03,00,33,0.30
2007,12,03,00,34,0.30
2007,12,03,00,35,0.30
2007,12,03,00,36,0.30
2007,12,03,00,37,0.30
2007,12,03,00,38,0.40
2007,12,03,00,39,0.40
2007,12,03,00,40,0.40
2007,12,03,00,41,0.40
2007,12,03,00,42,0.40
2007,12,03,00,43,0.40
2007,12,03,00,44,0.40
2007,12,03,00,45,0.40
2007,12,03,00,46,0.50
2007,12,03,00,47,0.50
2007,12,03,00,48,0.50
2007,12,03,00,49,0.50
2007,12,03,00,50,0.40
2007,12,03,00,51,0.40
2007,12,03,00,52,0.40
2007,12,03,00,53,0.40
2007,12,03,00,54,0.40
2007,12,03,00,55,0.50
2007,12,03,00,56,0.50
2007,12,03,00,57,0.60
2007,12,03,00,58,0.60
2007,12,03,00,59,0.60
2007,12,03,01,00,0.60
2007,12,03,01,01,0.60
2007,12,03,01,02,0.60
2007,12,03,01,03,0.60
2007,12,03,01,04,0.50
2007,12,03,01,05,0.50
2007,12,03,01,06,0.50
2007,12,03,01,07,0.50
2007,12,03,01,08,0.60
2007,12,03,01,09,0.60
2007,12,03,01,10,0.60
2007,12,03,01,11,0.60
2007,12,03,01,12,0.50
2007,12,03,01,13,0.40
2007,12,03,01,14,0.40
2007,12,03,01,15,0.40
2007,12,03,01,16,0.40
2007,12,03,01,17,0.40
2007,12,03,01,18,0.40
2007,12,03,01,19,0.40
2007,12,03,01,20,0.40
2007,12,03,01,21,0.50
2007,12,03,01,22,0.50
2007,12,03,01,23,0.50
2007,12,03,01,24,0.60
2007,12,03,01,25,0.60
2007,12,03,01,26,0.70
2007,12,03,01,27,0.60
2007,12,03,01,28,0.60
2007,12,03,01,29,0.60
2007,12,03,01,30,0.60
2007,12,03,01,31,0.60
2007,12,03,01,32,0.60
2007,12,03,01,33,0.60
2007,12,03,01,34,0.60
2007,12,03,01,35,0.60
2007,12,03,01,36,0.60
2007,12,03,01,37,0.60
2007,12,03,01,38,0.60
2007,12,03,01,39,0.60
2007,12,03,01,40,0.60
2007,12,03,01,41,0.60
2007,12,03,01,42,0.70
2007,12,03,01,43,0.70
2007,12,03,01,44,0.80
2007,12,03,01,45,0.80
2007,12,03,01,46,0.80
2007,12,03,01,47,0.80
2007,12,03,01,48,0.80
2007,12,03,01,49,0.80
2007,12,03,01,50,0.80
2007,12,03,01,51,0.80
2007,12,03,01,52,0.80
2007,12,03,01,53,0.80
2007,12,03,01,54,0.80
2007,12,03,01,55,0.90
2007,12,03,01,56,1.00
2007,12,03,01,57,1.10
2007,12,03,01,58,1.20
2007,12,03,01,59,1.20
2007,12,03,02,00,1.30
2007,12,03,02,01,1.30
2007,12,03,02,02,1.30
2007,12,03,02,03,1.30
2007,12,03,02,04,1.40
2007,12,03,02,05,1.50
2007,12,03,02,06,1.50
2007,12,03,02,07,1.60
2007,12,03,02,08,1.70
2007,12,03,02,09,1.80
2007,12,03,02,10,1.80
2007,12,03,02,11,1.90
2007,12,03,02,12,1.90
2007,12,03,02,13,2.00
2007,12,03,02,14,2.00
2007,12,03,02,15,2.10
2007,12,03,02,16,2.10
2007,12,03,02,17,2.10
2007,12,03,02,18,2.20
2007,12,03,02,19,2.30
2007,12,03,02,20,2.30
2007,12,03,02,21,2.30
2007,12,03,02,22,2.30
2007,12,03,02,23,2.30
2007,12,03,02,24,2.40
2007,12,03,02,25,2.30
2007,12,03,02,26,2.30
2007,12,03,02,27,2.30
2007,12,03,02,28,2.30
2007,12,03,02,29,2.30
2007,12,03,02,30,2.30
2007,12,03,02,31,2.30
2007,12,03,02,32,2.20
2007,12,03,02,33,2.20
2007,12,03,02,34,2.10
2007,12,03,02,35,2.10
2007,12,03,02,36,2.10
2007,12,03,02,37,2.20
2007,12,03,02,38,2.20
2007,12,03,02,39,2.20
2007,12,03,02,40,2.20
2007,12,03,02,41,2.20
2007,12,03,02,42,2.20
2007,12,03,02,43,2.30
2007,12,03,02,44,2.30
2007,12,03,02,45,2.30
2007,12,03,02,46,2.30
2007,12,03,02,47,2.30
2007,12,03,02,48,2.30
2007,12,03,02,49,2.30
2007,12,03,02,50,2.20
2007,12,03,02,51,2.20
2007,12,03,02,52,2.20
2007,12,03,02,53,2.20
2007,12,03,02,54,2.20
2007,12,03,02,55,2.20
2007,12,03,02,56,2.20
2007,12,03,02,57,2.20
2007,12,03,02,58,2.20
2007,12,03,02,59,2.20
2007,12,03,03,00,2.30
2007,12,03,03,01,2.30
2007,12,03,03,02,2.50
2007,12,03,03,03,2.60
2007,12,03,03,04,2.70
2007,12,03,03,05,2.80
2007,12,03,03,06,2.80
2007,12,03,03,07,2.90
2007,12,03,03,08,3.00
2007,12,03,03,09,3.10
2007,12,03,03,10,3.20
2007,12,03,03,11,3.30
2007,12,03,03,12,3.30
2007,12,03,03,13,3.30
2007,12,03,03,14,3.30
2007,12,03,03,15,3.20
2007,12,03,03,16,3.20
2007,12,03,03,17,3.20
2007,12,03,03,18,3.20
2007,12,03,03,19,3.20
2007,12,03,03,20,3.20
2007,12,03,03,21,3.30
2007,12,03,03,22,3.30
2007,12,03,03,23,3.30
2007,12,03,03,24,3.40
2007,12,03,03,25,3.40
2007,12,03,03,26,3.50
2007,12,03,03,27,3.50
2007,12,03,03,28,3.60
2007,12,03,03,29,3.70
2007,12,03,03,30,3.80
2007,12,03,03,31,3.80
2007,12,03,03,32,3.90
2007,12,03,03,33,4.00
2007,12,03,03,34,4.10
2007,12,03,03,35,4.30
2007,12,03,03,36,4.50
2007,12,03,03,37,4.80
2007,12,03,03,38,5.10
2007,12,03,03,39,5.40
2007,12,03,03,40,5.80
2007,12,03,03,41,6.20
2007,12,03,03,42,6.40
2007,12,03,03,43,6.50
2007,12,03,03,44,6.60
2007,12,03,03,45,6.70
2007,12,03,03,46,6.80
2007,12,03,03,47,6.90
2007,12,03,03,48,7.00
2007,12,03,03,49,7.10
2007,12,03,03,50,7.10
2007,12,03,03,51,7.10
2007,12,03,03,52,7.20
2007,12,03,03,53,7.20
2007,12,03,03,54,7.20
2007,12,03,03,55,7.20
2007,12,03,03,56,7.30
2007,12,03,03,57,7.30
2007,12,03,03,58,7.30
2007,12,03,03,59,7.30
2007,12,03,04,00,7.40
2007,12,03,04,01,7.40
2007,12,03,04,02,7.40
2007,12,03,04,03,7.40
2007,12,03,04,04,7.40
2007,12,03,04,05,7.40
2007,12,03,04,06,7.50
2007,12,03,04,07,7.60
2007,12,03,04,08,7.70
2007,12,03,04,09,7.70
2007,12,03,04,10,7.70
2007,12,03,04,11,7.70
2007,12,03,04,12,7.80
2007,12,03,04,13,7.80
2007,12,03,04,14,7.80
2007,12,03,04,15,7.80
2007,12,03,04,16,7.80
2007,12,03,04,17,7.80
2007,12,03,04,18,7.80
2007,12,03,04,19,7.80
2007,12,03,04,20,7.80
2007,12,03,04,21,7.90
2007,12,03,04,22,7.90
2007,12,03,04,23,7.90
2007,12,03,04,24,7.90
2007,12,03,04,25,8.00
2007,12,03,04,26,8.00
2007,12,03,04,27,8.10
2007,12,03,04,28,8.10
2007,12,03,04,29,8.10
2007,12,03,04,30,8.20
2007,12,03,04,31,8.20
2007,12,03,04,32,8.30
2007,12,03,04,33,8.30
2007,12,03,04,34,8.30
2007,12,03,04,35,8.30
2007,12,03,04,36,8.30
2007,12,03,04,37,8.30
2007,12,03,04,38,8.30
2007,12,03,04,39,8.30
2007,12,03,04,40,8.20
2007,12,03,04,41,8.20
2007,12,03,04,42,8.30
2007,12,03,04,43,8.20
2007,12,03,04,44,8.30
2007,12,03,04,45,8.30
2007,12,03,04,46,8.30
2007,12,03,04,47,8.40
2007,12,03,04,48,8.40
2007,12,03,04,49,8.40
2007,12,03,04,50,8.40
2007,12,03,04,51,8.40
2007,12,03,04,52,8.40
2007,12,03,04,53,8.40
2007,12,03,04,54,8.40
2007,12,03,04,55,8.40
2007,12,03,04,56,8.40
2007,12,03,04,57,8.40
2007,12,03,04,58,8.50
2007,12,03,04,59,8.50
2007,12,03,05,00,8.60
2007,12,03,05,01,8.60
2007,12,03,05,02,8.60
2007,12,03,05,03,8.60
2007,12,03,05,04,8.60
2007,12,03,05,05,8.60
2007,12,03,05,06,8.60
2007,12,03,05,07,8.60
2007,12,03,05,08,8.60
2007,12,03,05,09,8.60
2007,12,03,05,10,8.60
2007,12,03,05,11,8.60
2007,12,03,05,12,8.60
2007,12,03,05,13,8.60
2007,12,03,05,14,8.60
2007,12,03,05,15,8.70
2007,12,03,05,16,8.70
2007,12,03,05,17,8.70
2007,12,03,05,18,8.60
2007,12,03,05,19,8.70
2007,12,03,05,20,8.70
2007,12,03,05,21,8.70
2007,12,03,05,22,8.70
2007,12,03,05,23,8.70
2007,12,03,05,24,8.70
2007,12,03,05,25,8.70
2007,12,03,05,26,8.70
2007,12,03,05,27,8.70
2007,12,03,05,28,8.70
2007,12,03,05,29,8.70
2007,12,03,05,30,8.70
2007,12,03,05,31,8.70
2007,12,03,05,32,8.70
2007,12,03,05,33,8.70
2007,12,03,05,34,8.70
2007,12,03,05,35,8.80
2007,12,03,05,36,8.70
2007,12,03,05,37,8.70
2007,12,03,05,38,8.70
2007,12,03,05,39,8.70
2007,12,03,05,40,8.60
2007,12,03,05,41,8.60
2007,12,03,05,42,8.60
2007,12,03,05,43,8.60
2007,12,03,05,44,8.60
2007,12,03,05,45,8.60
2007,12,03,05,46,8.60
2007,12,03,05,47,8.70
2007,12,03,05,48,8.70
2007,12,03,05,49,8.70
2007,12,03,05,50,8.70
2007,12,03,05,51,8.70
2007,12,03,05,52,8.80
2007,12,03,05,53,8.80
2007,12,03,05,54,8.80
2007,12,03,05,55,8.80
2007,12,03,05,56,8.80
2007,12,03,05,57,8.80
2007,12,03,05,58,8.80
2007,12,03,05,59,8.80
2007,12,03,06,00,8.80
2007,12,03,06,01,8.80
2007,12,03,06,02,8.80
2007,12,03,06,03,8.90
2007,12,03,06,04,8.90
2007,12,03,06,05,8.90
2007,12,03,06,06,9.00
2007,12,03,06,07,9.00
2007,12,03,06,08,9.00
2007,12,03,06,09,9.10
2007,12,03,06,10,9.10
2007,12,03,06,11,9.00
2007,12,03,06,12,8.90
2007,12,03,06,13,8.90
2007,12,03,06,14,8.90
2007,12,03,06,15,8.90
2007,12,03,06,16,8.90
2007,12,03,06,17,8.80
2007,12,03,06,18,8.80
2007,12,03,06,19,8.90
2007,12,03,06,20,8.90
2007,12,03,06,21,9.10
2007,12,03,06,22,9.10
2007,12,03,06,23,9.10
2007,12,03,06,24,9.10
2007,12,03,06,25,9.00
2007,12,03,06,26,9.10
2007,12,03,06,27,9.10
2007,12,03,06,28,9.10
2007,12,03,06,29,9.10
2007,12,03,06,30,9.10
2007,12,03,06,31,9.10
2007,12,03,06,32,9.00
2007,12,03,06,33,9.00
2007,12,03,06,34,9.00
2007,12,03,06,35,9.00
2007,12,03,06,36,9.10
2007,12,03,06,37,9.10
2007,12,03,06,38,9.10
2007,12,03,06,39,9.20
2007,12,03,06,40,9.20
2007,12,03,06,41,9.20
2007,12,03,06,42,9.20
2007,12,03,06,43,9.30
2007,12,03,06,44,9.30
2007,12,03,06,45,9.30
2007,12,03,06,46,9.20
2007,12,03,06,47,9.30
2007,12,03,06,48,9.30
2007,12,03,06,49,9.30
2007,12,03,06,50,9.20
2007,12,03,06,51,9.20
2007,12,03,06,52,9.30
2007,12,03,06,53,9.40
2007,12,03,06,54,9.40
2007,12,03,06,55,9.40
2007,12,03,06,56,9.40
2007,12,03,06,57,9.40
2007,12,03,06,58,9.30
2007,12,03,06,59,9.30
2007,12,03,07,00,9.30
2007,12,03,07,01,9.30
2007,12,03,07,02,9.30
2007,12,03,07,03,9.50
2007,12,03,07,04,9.60
2007,12,03,07,05,9.70
2007,12,03,07,06,9.80
2007,12,03,07,07,9.80
2007,12,03,07,08,9.90
2007,12,03,07,09,9.90
2007,12,03,07,10,9.90
2007,12,03,07,11,9.90
2007,12,03,07,12,9.90
2007,12,03,07,13,9.90
2007,12,03,07,14,9.80
2007,12,03,07,15,9.90
2007,12,03,07,16,9.90
2007,12,03,07,17,10.00
2007,12,03,07,18,10.10
2007,12,03,07,19,10.10
2007,12,03,07,20,10.10
2007,12,03,07,21,10.10
2007,12,03,07,22,10.10
2007,12,03,07,23,10.10
2007,12,03,07,24,10.10
2007,12,03,07,25,10.00
2007,12,03,07,26,9.90
2007,12,03,07,27,9.80
2007,12,03,07,28,9.70
2007,12,03,07,29,9.80
2007,12,03,07,30,9.80
2007,12,03,07,31,9.90
2007,12,03,07,32,10.00
2007,12,03,07,33,10.00
2007,12,03,07,34,10.10
2007,12,03,07,35,10.00
2007,12,03,07,36,9.90
2007,12,03,07,37,9.80
2007,12,03,07,38,9.80
2007,12,03,07,39,9.70
2007,12,03,07,40,9.60
2007,12,03,07,41,9.60
2007,12,03,07,42,9.70
2007,12,03,07,43,9.70
2007,12,03,07,44,9.90
2007,12,03,07,45,10.20
2007,12,03,07,46,10.30
2007,12,03,07,47,10.30
2007,12,03,07,48,10.20
2007,12,03,07,49,10.10
2007,12,03,07,50,9.90
2007,12,03,07,51,9.80
2007,12,03,07,52,9.90
2007,12,03,07,53,10.10
2007,12,03,07,54,10.10
2007,12,03,07,55,10.10
2007,12,03,07,56,10.00
2007,12,03,07,57,10.00
2007,12,03,07,58,9.90
2007,12,03,07,59,9.80
2007,12,03,08,00,9.70
2007,12,03,08,01,9.70
2007,12,03,08,02,9.60
2007,12,03,08,03,9.60
2007,12,03,08,04,9.70
2007,12,03,08,05,9.70
2007,12,03,08,06,9.70
2007,12,03,08,07,9.60
2007,12,03,08,08,9.70
2007,12,03,08,09,9.80
2007,12,03,08,10,9.80
2007,12,03,08,11,9.80
2007,12,03,08,12,9.80
2007,12,03,08,13,9.80
2007,12,03,08,14,9.70
2007,12,03,08,15,9.70
2007,12,03,08,16,9.60
2007,12,03,08,17,9.60
2007,12,03,08,18,9.80
2007,12,03,08,19,10.00
2007,12,03,08,20,10.10
2007,12,03,08,21,10.00
2007,12,03,08,22,10.00
2007,12,03,08,23,9.90
2007,12,03,08,24,9.80
2007,12,03,08,25,9.70
2007,12,03,08,26,9.80
2007,12,03,08,27,9.90
2007,12,03,08,28,9.90
2007,12,03,08,29,9.90
2007,12,03,08,30,9.90
2007,12,03,08,31,9.90
2007,12,03,08,32,9.90
2007,12,03,08,33,9.90
2007,12,03,08,34,9.80
2007,12,03,08,35,9.80
2007,12,03,08,36,9.80
2007,12,03,08,37,9.80
2007,12,03,08,38,9.70
2007,12,03,08,39,9.70
2007,12,03,08,40,9.60
2007,12,03,08,41,9.60
2007,12,03,08,42,9.60
2007,12,03,08,43,9.60
2007,12,03,08,44,9.60
2007,12,03,08,45,9.60
2007,12,03,08,46,9.60
2007,12,03,08,47,9.60
2007,12,03,08,48,9.60
2007,12,03,08,49,9.60
2007,12,03,08,50,9.60
2007,12,03,08,51,9.60
2007,12,03,08,52,9.60
2007,12,03,08,53,9.60
2007,12,03,08,54,9.60
2007,12,03,08,55,9.60
2007,12,03,08,56,9.60
2007,12,03,08,57,9.70
2007,12,03,08,58,9.70
2007,12,03,08,59,9.70
2007,12,03,09,00,9.70
2007,12,03,09,01,9.60
2007,12,03,09,02,9.60
2007,12,03,09,03,9.60
2007,12,03,09,04,9.70
2007,12,03,09,05,9.70
2007,12,03,09,06,9.70
2007,12,03,09,07,9.70
2007,12,03,09,08,9.70
2007,12,03,09,09,9.70
2007,12,03,09,10,9.80
2007,12,03,09,11,9.80
2007,12,03,09,12,9.80
2007,12,03,09,13,9.90
2007,12,03,09,14,9.90
2007,12,03,09,15,9.90
2007,12,03,09,16,9.90
2007,12,03,09,17,9.80
2007,12,03,09,18,9.80
2007,12,03,09,19,9.80
2007,12,03,09,20,9.80
2007,12,03,09,21,9.80
2007,12,03,09,22,9.90
2007,12,03,09,23,9.90
2007,12,03,09,24,9.90
2007,12,03,09,25,9.90
2007,12,03,09,26,9.90
2007,12,03,09,27,9.90
2007,12,03,09,28,9.80
2007,12,03,09,29,9.80
2007,12,03,09,30,9.80
2007,12,03,09,31,9.80
2007,12,03,09,32,9.80
2007,12,03,09,33,9.80
2007,12,03,09,34,9.80
2007,12,03,09,35,9.80
2007,12,03,09,36,9.80
2007,12,03,09,37,9.80
2007,12,03,09,38,9.80
2007,12,03,09,39,9.80
2007,12,03,09,40,9.80
2007,12,03,09,41,9.80
2007,12,03,09,42,9.80
2007,12,03,09,43,9.80
2007,12,03,09,44,9.80
2007,12,03,09,45,9.90
2007,12,03,09,46,9.90
2007,12,03,09,47,9.90
2007,12,03,09,48,9.90
2007,12,03,09,49,9.90
2007,12,03,09,50,9.90
2007,12,03,09,51,10.00
2007,12,03,09,52,10.00
2007,12,03,09,53,10.00
2007,12,03,09,54,9.90
2007,12,03,09,55,9.90
2007,12,03,09,56,9.90
2007,12,03,09,57,10.00
2007,12,03,09,58,10.00
2007,12,03,09,59,10.00
2007,12,03,10,00,10.10
2007,12,03,10,01,10.10
2007,12,03,10,02,10.10
2007,12,03,10,03,10.10
2007,12,03,10,04,10.10
2007,12,03,10,05,10.10
2007,12,03,10,06,10.00
2007,12,03,10,07,10.00
2007,12,03,10,08,10.00
2007,12,03,10,09,10.00
2007,12,03,10,10,10.00
2007,12,03,10,11,10.10
2007,12,03,10,12,10.00
2007,12,03,10,13,10.10
2007,12,03,10,14,10.00
2007,12,03,10,15,10.00
2007,12,03,10,16,10.10
2007,12,03,10,17,10.10
2007,12,03,10,18,10.10
2007,12,03,10,19,10.10
2007,12,03,10,20,10.10
2007,12,03,10,21,10.20
2007,12,03,10,22,10.20
2007,12,03,10,23,10.20
2007,12,03,10,24,10.20
2007,12,03,10,25,10.20
2007,12,03,10,26,10.20
2007,12,03,10,27,10.20
2007,12,03,10,28,10.20
2007,12,03,10,29,10.20
2007,12,03,10,30,10.20
2007,12,03,10,31,10.20
2007,12,03,10,32,10.20
2007,12,03,10,33,10.20
2007,12,03,10,34,10.20
2007,12,03,10,35,10.20
2007,12,03,10,36,10.20
2007,12,03,10,37,10.20
2007,12,03,10,38,10.20
2007,12,03,10,39,10.30
2007,12,03,10,40,10.20
2007,12,03,10,41,10.20
2007,12,03,10,42,10.20
2007,12,03,10,43,10.20
2007,12,03,10,44,10.20
2007,12,03,10,45,10.30
2007,12,03,10,46,10.30
2007,12,03,10,47,10.20
2007,12,03,10,48,10.20
2007,12,03,10,49,10.20
2007,12,03,10,50,10.20
2007,12,03,10,51,10.20
2007,12,03,10,52,10.30
2007,12,03,10,53,10.30
2007,12,03,10,54,10.30
2007,12,03,10,55,10.30
2007,12,03,10,56,10.30
2007,12,03,10,57,10.20
2007,12,03,10,58,10.30
2007,12,03,10,59,10.30
2007,12,03,11,00,10.20
2007,12,03,11,01,10.20
2007,12,03,11,02,10.20
2007,12,03,11,03,10.20
2007,12,03,11,04,10.20
2007,12,03,11,05,10.20
2007,12,03,11,06,10.20
2007,12,03,11,07,10.20
2007,12,03,11,08,10.20
2007,12,03,11,09,10.20
2007,12,03,11,10,10.20
2007,12,03,11,11,10.20
2007,12,03,11,12,10.20
2007,12,03,11,13,10.20
2007,12,03,11,14,10.20
2007,12,03,11,15,10.30
2007,12,03,11,16,10.20
2007,12,03,11,17,10.20
2007,12,03,11,18,10.20
2007,12,03,11,19,10.20
2007,12,03,11,20,10.20
2007,12,03,11,21,10.20
2007,12,03,11,22,10.20
2007,12,03,11,23,10.20
2007,12,03,11,24,10.20
2007,12,03,11,25,10.20
2007,12,03,11,26,10.20
2007,12,03,11,27,10.20
2007,12,03,11,28,10.30
2007,12,03,11,29,10.30
2007,12,03,11,30,10.30
2007,12,03,11,31,10.20
2007,12,03,11,32,10.20
2007,12,03,11,33,10.20
2007,12,03,11,34,10.20
2007,12,03,11,35,10.20
2007,12,03,11,36,10.30
2007,12,03,11,37,10.30
2007,12,03,11,38,10.30
2007,12,03,11,39,10.30
2007,12,03,11,40,10.40
2007,12,03,11,41,10.50
2007,12,03,11,42,10.70
2007,12,03,11,43,10.70
2007,12,03,11,44,10.70
2007,12,03,11,45,10.80
2007,12,03,11,46,10.80
2007,12,03,11,47,10.80
2007,12,03,11,48,10.80
2007,12,03,11,49,11.00
2007,12,03,11,50,11.20
2007,12,03,11,51,11.40
2007,12,03,11,52,11.40
2007,12,03,11,53,11.40
2007,12,03,11,54,11.50
2007,12,03,11,55,11.60
2007,12,03,11,56,11.90
2007,12,03,11,57,12.10
2007,12,03,11,58,12.20
2007,12,03,11,59,12.20
2007,12,03,12,00,12.40
2007,12,03,12,01,12.70
2007,12,03,12,02,12.90
2007,12,03,12,03,12.90
2007,12,03,12,04,12.90
2007,12,03,12,05,12.90
2007,12,03,12,06,12.90
2007,12,03,12,07,12.90
2007,12,03,12,08,12.90
2007,12,03,12,09,12.90
2007,12,03,12,10,12.90
2007,12,03,12,11,12.90
2007,12,03,12,12,12.90
2007,12,03,12,13,13.00
2007,12,03,12,14,13.00
2007,12,03,12,15,13.20
2007,12,03,12,16,13.20
2007,12,03,12,17,13.20
2007,12,03,12,18,13.20
2007,12,03,12,19,13.20
2007,12,03,12,20,13.20
2007,12,03,12,21,13.20
2007,12,03,12,22,13.20
2007,12,03,12,23,13.10
2007,12,03,12,24,13.20
2007,12,03,12,25,13.30
2007,12,03,12,26,13.30
2007,12,03,12,27,13.30
2007,12,03,12,28,13.30
2007,12,03,12,29,13.30
2007,12,03,12,30,13.30
2007,12,03,12,31,13.30
2007,12,03,12,32,13.30
2007,12,03,12,33,13.30
2007,12,03,12,34,13.30
2007,12,03,12,35,13.20
2007,12,03,12,36,13.10
2007,12,03,12,37,13.20
2007,12,03,12,38,13.20
2007,12,03,12,39,13.30
2007,12,03,12,40,13.30
2007,12,03,12,41,13.30
2007,12,03,12,42,13.30
2007,12,03,12,43,13.40
2007,12,03,12,44,13.40
2007,12,03,12,45,13.40
2007,12,03,12,46,13.50
2007,12,03,12,47,13.60
2007,12,03,12,48,13.60
2007,12,03,12,49,13.60
2007,12,03,12,50,13.60
2007,12,03,12,51,13.70
2007,12,03,12,52,13.70
2007,12,03,12,53,13.70
2007,12,03,12,54,13.70
2007,12,03,12,55,13.70
2007,12,03,12,56,13.70
2007,12,03,12,57,13.70
2007,12,03,12,58,13.70
2007,12,03,12,59,13.70
2007,12,03,13,00,13.70
2007,12,03,13,01,13.70
2007,12,03,13,02,13.70
2007,12,03,13,03,13.70
2007,12,03,13,04,13.80
2007,12,03,13,05,13.80
2007,12,03,13,06,13.80
2007,12,03,13,07,13.80
2007,12,03,13,08,13.90
2007,12,03,13,09,13.80
2007,12,03,13,10,13.80
2007,12,03,13,11,13.80
2007,12,03,13,12,13.70
2007,12,03,13,13,13.70
2007,12,03,13,14,13.70
2007,12,03,13,15,13.70
2007,12,03,13,16,13.70
2007,12,03,13,17,13.70
2007,12,03,13,18,13.70
2007,12,03,13,19,13.80
2007,12,03,13,20,13.80
2007,12,03,13,21,13.80
2007,12,03,13,22,13.80
2007,12,03,13,23,13.80
2007,12,03,13,24,13.80
2007,12,03,13,25,13.80
2007,12,03,13,26,13.80
2007,12,03,13,27,13.80
2007,12,03,13,28,13.70
2007,12,03,13,29,13.70
2007,12,03,13,30,13.60
2007,12,03,13,31,13.60
2007,12,03,13,32,13.50
2007,12,03,13,33,13.40
2007,12,03,13,34,13.30
2007,12,03,13,35,13.20
2007,12,03,13,36,13.10
2007,12,03,13,37,13.10
2007,12,03,13,38,13.10
2007,12,03,13,39,13.20
2007,12,03,13,40,13.20
2007,12,03,13,41,13.20
2007,12,03,13,42,13.20
2007,12,03,13,43,13.20
2007,12,03,13,44,13.20
2007,12,03,13,45,13.20
2007,12,03,13,46,13.20
2007,12,03,13,47,13.20
2007,12,03,13,48,13.20
2007,12,03,13,49,13.20
2007,12,03,13,50,13.20
2007,12,03,13,51,13.30
2007,12,03,13,52,13.40
2007,12,03,13,53,13.40
2007,12,03,13,54,13.40
2007,12,03,13,55,13.40
2007,12,03,13,56,13.40
2007,12,03,13,57,13.40
2007,12,03,13,58,13.30
2007,12,03,13,59,13.30
2007,12,03,14,00,13.30
2007,12,03,14,01,13.40
2007,12,03,14,02,13.40
2007,12,03,14,03,13.40
2007,12,03,14,04,13.40
2007,12,03,14,05,13.40
2007,12,03,14,06,13.40
2007,12,03,14,07,13.40
2007,12,03,14,08,13.40
2007,12,03,14,09,13.30
2007,12,03,14,10,13.30
2007,12,03,14,11,13.30
2007,12,03,14,12,13.30
2007,12,03,14,13,13.30
2007,12,03,14,14,13.20
2007,12,03,14,15,13.10
2007,12,03,14,16,13.10
2007,12,03,14,17,13.00
2007,12,03,14,18,13.00
2007,12,03,14,19,13.00
2007,12,03,14,20,13.00
2007,12,03,14,21,13.00
2007,12,03,14,22,12.90
2007,12,03,14,23,12.90
2007,12,03,14,24,12.90
2007,12,03,14,25,12.90
2007,12,03,14,26,13.00
2007,12,03,14,27,13.10
2007,12,03,14,28,13.20
2007,12,03,14,29,13.30
2007,12,03,14,30,13.30
2007,12,03,14,31,13.30
2007,12,03,14,32,13.30
2007,12,03,14,33,13.40
2007,12,03,14,34,13.40
2007,12,03,14,35,13.40
2007,12,03,14,36,13.40
2007,12,03,14,37,13.40
2007,12,03,14,38,13.40
2007,12,03,14,39,13.30
2007,12,03,14,40,13.30
2007,12,03,14,41,13.30
2007,12,03,14,42,13.40
2007,12,03,14,43,13.60
2007,12,03,14,44,13.60
2007,12,03,14,45,13.50
2007,12,03,14,46,13.40
2007,12,03,14,47,13.40
2007,12,03,14,48,13.40
2007,12,03,14,49,13.50
2007,12,03,14,50,13.60
2007,12,03,14,51,13.60
2007,12,03,14,52,13.70
2007,12,03,14,53,13.80
2007,12,03,14,54,13.70
2007,12,03,14,55,13.70
2007,12,03,14,56,13.70
2007,12,03,14,57,13.70
2007,12,03,14,58,13.60
2007,12,03,14,59,13.60
2007,12,03,15,00,13.60
2007,12,03,15,01,13.60
2007,12,03,15,02,13.60
2007,12,03,15,03,13.70
2007,12,03,15,04,13.70
2007,12,03,15,05,13.70
2007,12,03,15,06,13.60
2007,12,03,15,07,13.60
2007,12,03,15,08,13.60
2007,12,03,15,09,13.50
2007,12,03,15,10,13.50
2007,12,03,15,11,13.50
2007,12,03,15,12,13.50
2007,12,03,15,13,13.50
2007,12,03,15,14,13.50
2007,12,03,15,15,13.50
2007,12,03,15,16,13.50
2007,12,03,15,17,13.40
2007,12,03,15,18,13.40
2007,12,03,15,19,13.40
2007,12,03,15,20,13.40
2007,12,03,15,21,13.40
2007,12,03,15,22,13.40
2007,12,03,15,23,13.30
2007,12,03,15,24,13.30
2007,12,03,15,25,13.30
2007,12,03,15,26,13.30
2007,12,03,15,27,13.30
2007,12,03,15,28,13.30
2007,12,03,15,29,13.30
2007,12,03,15,30,13.30
2007,12,03,15,31,13.30
2007,12,03,15,32,13.30
2007,12,03,15,33,13.40
2007,12,03,15,34,13.30
2007,12,03,15,35,13.20
2007,12,03,15,36,13.10
2007,12,03,15,37,13.10
2007,12,03,15,38,13.10
2007,12,03,15,39,13.10
2007,12,03,15,40,13.10
2007,12,03,15,41,13.10
2007,12,03,15,42,13.20
2007,12,03,15,43,13.40
2007,12,03,15,44,13.40
2007,12,03,15,45,13.40
2007,12,03,15,46,13.40
2007,12,03,15,47,13.60
2007,12,03,15,48,13.70
2007,12,03,15,49,13.70
2007,12,03,15,50,13.60
2007,12,03,15,51,13.60
2007,12,03,15,52,13.60
2007,12,03,15,53,13.60
2007,12,03,15,54,13.70
2007,12,03,15,55,13.80
2007,12,03,15,56,13.80
2007,12,03,15,57,13.80
2007,12,03,15,58,13.80
2007,12,03,15,59,13.80
2007,12,03,16,00,13.60
2007,12,03,16,01,13.50
2007,12,03,16,02,13.40
2007,12,03,16,03,13.30
2007,12,03,16,04,13.20
2007,12,03,16,05,13.00
2007,12,03,16,06,12.80
2007,12,03,16,07,12.70
2007,12,03,16,08,12.70
2007,12,03,16,09,12.70
2007,12,03,16,10,12.70
2007,12,03,16,11,12.70
2007,12,03,16,12,12.70
2007,12,03,16,13,12.60
2007,12,03,16,14,12.60
2007,12,03,16,15,12.50
2007,12,03,16,16,12.40
2007,12,03,16,17,12.40
2007,12,03,16,18,12.30
2007,12,03,16,19,12.40
2007,12,03,16,20,12.40
2007,12,03,16,21,12.40
2007,12,03,16,22,12.30
2007,12,03,16,23,12.30
2007,12,03,16,24,12.30
2007,12,03,16,25,12.40
2007,12,03,16,26,12.60
2007,12,03,16,27,12.70
2007,12,03,16,28,12.80
2007,12,03,16,29,12.80
2007,12,03,16,30,12.80
2007,12,03,16,31,12.90
2007,12,03,16,32,13.00
2007,12,03,16,33,13.00
2007,12,03,16,34,13.10
2007,12,03,16,35,13.10
2007,12,03,16,36,13.00
2007,12,03,16,37,12.90
2007,12,03,16,38,12.90
2007,12,03,16,39,12.90
2007,12,03,16,40,13.00
2007,12,03,16,41,13.10
2007,12,03,16,42,13.10
2007,12,03,16,43,13.20
2007,12,03,16,44,13.20
2007,12,03,16,45,13.20
2007,12,03,16,46,13.10
2007,12,03,16,47,13.10
2007,12,03,16,48,13.00
2007,12,03,16,49,12.90
2007,12,03,16,50,12.80
2007,12,03,16,51,12.80
2007,12,03,16,52,12.80
2007,12,03,16,53,12.70
2007,12,03,16,54,12.70
2007,12,03,16,55,12.60
2007,12,03,16,56,12.70
2007,12,03,16,57,12.70
2007,12,03,16,58,12.70
2007,12,03,16,59,12.70
2007,12,03,17,00,12.70
2007,12,03,17,01,12.70
2007,12,03,17,02,12.70
2007,12,03,17,03,12.70
2007,12,03,17,04,12.70
2007,12,03,17,05,12.60
2007,12,03,17,06,12.60
2007,12,03,17,07,12.60
2007,12,03,17,08,12.60
2007,12,03,17,09,12.50
2007,12,03,17,10,12.50
2007,12,03,17,11,12.60
2007,12,03,17,12,12.50
2007,12,03,17,13,12.50
2007,12,03,17,14,12.50
2007,12,03,17,15,12.40
2007,12,03,17,16,12.40
2007,12,03,17,17,12.30
2007,12,03,17,18,12.30
2007,12,03,17,19,12.40
2007,12,03,17,20,12.40
2007,12,03,17,21,12.40
2007,12,03,17,22,12.30
2007,12,03,17,23,12.30
2007,12,03,17,24,12.30
2007,12,03,17,25,12.30
2007,12,03,17,26,12.30
2007,12,03,17,27,12.30
2007,12,03,17,28,12.20
2007,12,03,17,29,12.20
2007,12,03,17,30,12.20
2007,12,03,17,31,12.20
2007,12,03,17,32,12.30
2007,12,03,17,33,12.40
2007,12,03,17,34,12.50
2007,12,03,17,35,12.80
2007,12,03,17,36,12.90
2007,12,03,17,37,13.10
2007,12,03,17,38,13.20
2007,12,03,17,39,13.20
2007,12,03,17,40,13.30
2007,12,03,17,41,13.30
2007,12,03,17,42,13.50
2007,12,03,17,43,13.60
2007,12,03,17,44,13.60